Weather in Vereshim

Russia / Penza Oblast     52°32′25″N   45°33′12″E
temp.,
°C
wind,
m/s
gust,
m/s
humid.,
%
clouds,
%
prec.,
mm/h
press.,
hPa
HPBL,
m
14 june, mon
mon1400:00+17ssw2291100 0.0 101315
03:00+15s2397100 2.6 101459
06:00+17s2388100 0.4 101495
09:00+20se3474100 0.4 1015367
12:00+22ese446977 0.3 1015927
15:00+20e4580100 3.0 1015425
18:00+19ese348159 1.3 1014467
21:00+16e339293 1.3 101546
15 june, tue
tue1500:00+16ene249171 0.0 1015101
03:00+15ene349398 0.0 101478
06:00+16ne4995100 0.4 1014318
09:00+18ne589083 1.3 1012416
12:00+20ene61087100 3.5 1011497
15:00+22ene4775100 4.6 1010880
18:00+22nne357866 1.3 100898
21:00+18nne228348 1.3 100715
16 june, wed
wed1600:00+17nw118825 0.0 100611
03:00+16wnw349382 0.0 100673
06:00+17w349383 0.0 1007161
09:00+21w458257 0.0 1008563
12:00+24wnw566839 0.1 10081331
15:00+24wnw687163 1.4 10091271
18:00+22wnw5882100 2.4 1010328
21:00+19nw4990100 2.8 1012185
17 june, thu
thu1700:00+17nnw5119612 0.0 1013318
03:00+15n5119845 0.0 1015384
06:00+15nne511890 0.0 1017484
09:00+18nne69615 0.0 1018884
12:00+21nne67530 0.0 10191578
15:00+21n77560 0.0 10201659
18:00+19n69670 0.0 1021664
21:00+14n37770 0.0 1022116
18 june, fri
fri1800:00+13n36790 0.0 102399
03:00+11n36840 0.0 1024116
06:00+13nne36790 0.0 1025184
09:00+18nne45615 0.0 1026692
12:00+21n46500 0.0 10261854
15:00+22n56501 0.0 10261806
18:00+20nne46660 0.0 1026311
21:00+15ne357522 0.0 102868